Regional Weather Roundup
Issued by NWS Mobile, AL

Home | Current Version | Previous Version | Text Only | Print | Product List | Glossary On
Versions: 1 2 3 4 5 6 7 8 9 10 11 12 13 14 15 16 17 18 19 20 21 22 23 24 25 26 27
000
ASUS44 KMOB 221112
RWRMOB
REGIONAL WEATHER ROUNDUP
NATIONAL WEATHER SERVICE MOBILE AL
600 AM CDT SUN APR 22 2018

NOTE: "FAIR" INDICATES FEW OR NO CLOUDS BELOW 12,000 FEET WITH NO
      SIGNIFICANT WEATHER AND/OR OBSTRUCTIONS TO VISIBILITY.

  * THESE STATIONS ARE PART OF THE UNIVERSITY OF SOUTH ALABAMA
    MESONET AND ARE NOT UNDER NWS OR FAA QUALITY CONTROL.

ALZ061>064-221200-
COASTAL ALABAMA

CITY           SKY/WX    TMP DP  RH WIND       PRES   REMARKS
MOBILE REG APT CLOUDY    67  64  90 SE12      30.01S
BROOKLEY FIELD FAIR      69  67  93 SE10      30.02S
USA CAMPUS*    NOT AVBL
DOG RIVER*     NOT AVBL


CITY           SKY/WX    TMP DP  RH WIND       PRES   REMARKS
GULF SHORES    CLOUDY    68  67  97 E9        30.00F

$$

ALZ051>060-221200-
INTERIOR SOUTHWEST AND SOUTH CENTRAL ALABAMA

CITY           SKY/WX    TMP DP  RH WIND       PRES   REMARKS
GREENVILLE     CLOUDY    66  58  75 SE9       30.08S
EVERGREEN      CLOUDY    67  61  81 SE9       30.07S
ATMORE*          N/A    N/A N/A N/A E14       30.75S
ANDALUSIA/OPP  CLOUDY    69  61  75 E9        30.07F
ANDALUSIA*     NOT AVBL
FLORALA APT    FAIR      65  60  84 MISG      30.10S
FLORALA*       NOT AVBL

$$

FLZ001>006-221200-
WESTERN FLORIDA PANHANDLE

CITY           SKY/WX    TMP DP  RH WIND       PRES   REMARKS
PENSACOLA      MOCLDY    70  65  84 E13       30.02F
NAS PENSACOLA  FAIR      70  67  90 E14       30.01F
MILTON         CLOUDY    65  64  97 E8        30.05S
WHTNG S FIELD  CLOUDY    66  64  93 E7        30.05S


CITY           SKY/WX    TMP DP  RH WIND       PRES   REMARKS
JAY*           NOT AVBL
DUKE FIELD     FAIR      66  61  82 E5        30.06S
CRESTVIEW      CLOUDY    65  61  87 E7        30.07F
VALPARAISO     CLOUDY    69  64  85 E12       30.04F
DESTIN         CLOUDY    72  65  78 SE12      30.05S

$$

MSZ076-079-221200-
INTERIOR SOUTHEAST MISSISSIPPI

CITY           SKY/WX    TMP DP  RH WIND       PRES   REMARKS
LEAKESVILLE*   NOT AVBL
AGRICOLA*        N/A     63  63 100 E5        29.99F

$$

MARINE OBSERVATIONS

STATION/POSITION TIME  TEMP    WIND        PRES    WAVE
                       AIR SEA DIR/SP/G            HT/PER
                 (UTC) (F)     (DEG/KT/KT) (MB)    (FT/S)
PETIT BOIS ISLND 1048   68     110/  9/ 12 1016.1F
GRAND BAY        0930   68     100/  9     1017.0S
KATRINA CUT      1030   69     110/ 14     1015.9S
CEDAR POINT      1030   69     120/ 12       N/A
E DAUPHIN ISLAND 1100   69     110/ 14/ 16 1015.8R
MIDDLE BAY LIGHT 1030   68     110/ 14     1015.6F
USCG MOBILE BAY  1048   67 68  110/  7/  9 1015.8F
STATE DOCKS      1042   67 65              1015.8F
MEAHER PARK      1030   67      90/  6     1015.6F
WEEKS BAY        0945   67                 1016.0F
FORT MORGAN      1048   69     120/ 17/ 19   N/A
12 S ORANGE BCH  1050   70     120/ 12/ 14 1016.0F   3/ 5
PENSACOLA BAY    1042   70 71   80/  1/  5 1017.1F
64 S DAUPHIN ISL 1100      71  120/ 10/ 14 1015.8
67 S FORT MORGAN 1030   70                 1015.2F

$$

SELECTED LOCATIONS ACROSS THE REGION

CITY           SKY/WX    TMP DP  RH WIND       PRES   REMARKS
NEW ORLEANS    LGT RAIN  69  68  96 SE16      29.94F FOG
GULFPORT       CLOUDY    70  68  93 SE10      29.98R FOG
PASCAGOULA AP  CLOUDY    68  65  90 SE7       29.99S
PASCAGOULA*    NOT AVBL
HATTIESBURG    CLOUDY    66  65  96 SE5       30.01R
LAUREL         CLOUDY    64  63  96 S5        30.02R
MERIDIAN       CLOUDY    66  60  81 SE8       30.02R
JACKSON        HVY RAIN  62  62 100 SE6       29.98F FOG
MONTGOMERY     CLOUDY    65  59  81 E10       30.09F
TROY           LGT RAIN  64  60  87 E14G20    30.10F
ASHFORD*       NOT AVBL
DOTHAN         CLOUDY    65  59  81 E8        30.15R
PANAMA CITY    CLOUDY    69  64  84 NE3       30.07S

$$





USA.gov is the U.S. government's official web portal to all federal, state and local government web resources and services.